Precipitable_Water
0.73 0.72 0.66 0.64 0.66 0.67 0.70 0.69 0.67 0.68 0.70 0.71 0.71 0.71 0.76 0.75 0.70 0.60 0.50 0.50 0.40 0.31 0.28 0.31 0.34 0.26 0.26 0.34 0.30 0.40 0.40 0.42 0.41 0.33 0.32 0.32 0.29 0.33 0.31 0.34 0.32 0.30 0.28 0.27 0.28 0.23 0.18 0.39 0.43 0.41 0.53 0.60 0.62 0.62
0.74 0.74 0.65 0.66 0.69 0.73 0.71 0.69 0.68 0.69 0.72 0.72 0.71 0.71 0.75 0.74 0.73 0.72 0.52 0.55 0.53 0.41 0.36 0.42 0.42 0.42 0.38 0.32 0.39 0.45 0.42 0.40 0.42 0.35 0.34 0.35 0.31 0.36 0.34 0.25 0.43 0.30 0.33 0.31 0.33 0.31 0.39 0.48 0.50 0.58 0.61 0.61 0.64 0.63
0.71 0.71 0.68 0.70 0.73 0.76 0.73 0.70 0.69 0.71 0.72 0.73 0.72 0.69 0.72 0.76 0.74 0.69 0.61 0.65 0.63 0.52 0.46 0.46 0.40 0.44 0.47 0.45 0.44 0.37 0.48 0.56 0.49 0.54 0.42 0.39 0.31 0.38 0.29 0.31 0.36 0.42 0.46 0.37 0.38 0.42 0.45 0.49 0.55 0.61 0.65 0.64 0.67 0.67
0.67 0.67 0.69 0.69 0.72 0.75 0.73 0.72 0.69 0.69 0.71 0.74 0.72 0.72 0.72 0.74 0.74 0.70 0.62 0.67 0.60 0.49 0.37 0.31 0.38 0.32 0.38 0.40 0.38 0.39 0.48 0.62 0.60 0.56 0.45 0.41 0.34 0.44 0.35 0.38 0.36 0.42 0.46 0.41 0.40 0.46 0.50 0.53 0.57 0.61 0.65 0.67 0.67 0.66
0.66 0.66 0.67 0.67 0.70 0.73 0.73 0.72 0.71 0.70 0.70 0.73 0.71 0.70 0.72 0.74 0.69 0.65 0.63 0.62 0.60 0.42 0.28 0.28 0.38 0.37 0.38 0.36 0.31 0.31 0.32 0.44 0.50 0.51 0.45 0.40 0.44 0.42 0.43 0.42 0.36 0.45 0.41 0.38 0.37 0.49 0.49 0.50 0.57 0.62 0.61 0.63 0.66 0.65
0.62 0.65 0.68 0.70 0.71 0.75 0.75 0.73 0.72 0.71 0.71 0.73 0.71 0.71 0.72 0.58 0.64 0.56 0.41 0.49 0.53 0.51 0.33 0.26 0.34 0.33 0.35 0.37 0.30 0.27 0.26 0.32 0.46 0.49 0.51 0.51 0.54 0.45 0.35 0.31 0.42 0.47 0.51 0.51 0.47 0.57 0.55 0.57 0.60 0.64 0.60 0.60 0.64 0.66
0.58 0.63 0.70 0.73 0.73 0.75 0.75 0.73 0.72 0.71 0.71 0.71 0.72 0.70 0.56 0.64 0.58 0.44 0.38 0.47 0.57 0.53 0.36 0.26 0.27 0.37 0.38 0.33 0.27 0.24 0.25 0.30 0.46 0.49 0.52 0.51 0.50 0.49 0.40 0.30 0.42 0.48 0.50 0.51 0.54 0.55 0.50 0.56 0.56 0.63 0.62 0.63 0.66 0.67
0.58 0.63 0.69 0.75 0.75 0.75 0.74 0.72 0.72 0.71 0.71 0.71 0.72 0.66 0.60 0.62 0.61 0.50 0.56 0.60 0.60 0.46 0.40 0.27 0.29 0.33 0.45 0.29 0.22 0.30 0.24 0.32 0.49 0.50 0.57 0.53 0.53 0.49 0.35 0.41 0.46 0.49 0.50 0.51 0.52 0.53 0.52 0.55 0.57 0.55 0.60 0.61 0.61 0.63
0.53 0.57 0.62 0.66 0.71 0.74 0.72 0.72 0.72 0.71 0.71 0.70 0.66 0.59 0.59 0.57 0.47 0.48 0.60 0.63 0.60 0.46 0.34 0.34 0.31 0.32 0.49 0.45 0.45 0.38 0.41 0.38 0.54 0.47 0.52 0.52 0.45 0.36 0.40 0.44 0.46 0.48 0.48 0.48 0.51 0.50 0.50 0.49 0.48 0.52 0.57 0.59 0.59 0.61
0.52 0.55 0.58 0.59 0.64 0.68 0.70 0.70 0.69 0.71 0.69 0.62 0.60 0.52 0.41 0.46 0.54 0.55 0.52 0.46 0.45 0.47 0.46 0.37 0.44 0.38 0.49 0.47 0.45 0.44 0.49 0.43 0.38 0.48 0.57 0.44 0.40 0.48 0.50 0.50 0.50 0.49 0.49 0.49 0.44 0.42 0.44 0.50 0.51 0.53 0.57 0.60 0.61 0.64
0.51 0.53 0.54 0.54 0.57 0.61 0.67 0.68 0.69 0.67 0.65 0.55 0.47 0.44 0.52 0.52 0.41 0.41 0.39 0.38 0.40 0.37 0.44 0.45 0.46 0.42 0.57 0.45 0.46 0.53 0.45 0.47 0.37 0.44 0.42 0.38 0.35 0.43 0.49 0.49 0.51 0.51 0.49 0.49 0.48 0.53 0.54 0.55 0.56 0.58 0.63 0.66 0.65 0.67
0.48 0.52 0.52 0.52 0.54 0.58 0.61 0.65 0.66 0.60 0.56 0.56 0.54 0.58 0.57 0.44 0.33 0.33 0.34 0.38 0.36 0.35 0.45 0.43 0.47 0.51 0.54 0.62 0.50 0.50 0.43 0.44 0.33 0.50 0.39 0.31 0.39 0.46 0.48 0.49 0.48 0.48 0.49 0.47 0.55 0.58 0.61 0.61 0.62 0.62 0.64 0.66 0.69 0.72
0.46 0.51 0.53 0.54 0.55 0.56 0.58 0.60 0.61 0.61 0.59 0.54 0.45 0.38 0.37 0.36 0.27 0.27 0.27 0.31 0.32 0.41 0.45 0.46 0.43 0.51 0.55 0.56 0.48 0.46 0.37 0.35 0.46 0.36 0.30 0.35 0.42 0.46 0.49 0.50 0.48 0.47 0.52 0.58 0.59 0.60 0.62 0.65 0.69 0.67 0.67 0.69 0.69 0.69
0.45 0.49 0.52 0.54 0.57 0.56 0.58 0.59 0.59 0.56 0.47 0.37 0.30 0.24 0.30 0.29 0.33 0.33 0.32 0.35 0.41 0.41 0.42 0.45 0.45 0.47 0.51 0.46 0.47 0.38 0.43 0.42 0.32 0.28 0.28 0.37 0.42 0.47 0.49 0.49 0.48 0.48 0.50 0.52 0.55 0.57 0.60 0.65 0.68 0.72 0.74 0.76 0.74 0.70
0.47 0.50 0.53 0.54 0.56 0.57 0.58 0.58 0.55 0.51 0.41 0.32 0.32 0.23 0.25 0.33 0.36 0.37 0.39 0.37 0.37 0.39 0.40 0.40 0.44 0.48 0.45 0.42 0.44 0.41 0.35 0.30 0.31 0.29 0.36 0.42 0.45 0.47 0.45 0.46 0.48 0.48 0.49 0.50 0.52 0.52 0.54 0.58 0.62 0.65 0.70 0.72 0.72 0.71
0.49 0.51 0.49 0.56 0.57 0.57 0.56 0.54 0.52 0.46 0.38 0.33 0.32 0.27 0.30 0.31 0.32 0.35 0.35 0.35 0.42 0.37 0.41 0.42 0.39 0.39 0.38 0.40 0.36 0.33 0.32 0.29 0.34 0.40 0.45 0.47 0.47 0.46 0.45 0.46 0.47 0.48 0.46 0.45 0.47 0.49 0.50 0.51 0.52 0.55 0.59 0.61 0.65 0.68
0.49 0.42 0.53 0.58 0.57 0.55 0.54 0.48 0.41 0.33 0.29 0.27 0.25 0.31 0.31 0.30 0.30 0.33 0.38 0.39 0.45 0.39 0.33 0.38 0.32 0.33 0.42 0.35 0.33 0.39 0.34 0.39 0.44 0.47 0.50 0.51 0.49 0.48 0.48 0.46 0.46 0.44 0.42 0.42 0.42 0.43 0.42 0.43 0.44 0.44 0.44 0.49 0.53 0.59
0.40 0.46 0.54 0.57 0.56 0.53 0.49 0.46 0.37 0.30 0.23 0.23 0.21 0.25 0.29 0.31 0.30 0.33 0.37 0.41 0.41 0.39 0.35 0.34 0.39 0.33 0.32 0.30 0.34 0.42 0.46 0.48 0.49 0.49 0.51 0.52 0.52 0.52 0.49 0.46 0.45 0.43 0.41 0.40 0.37 0.36 0.36 0.36 0.33 0.33 0.35 0.38 0.42 0.46
0.43 0.47 0.52 0.55 0.56 0.48 0.39 0.37 0.38 0.26 0.24 0.25 0.26 0.28 0.29 0.30 0.33 0.35 0.38 0.42 0.43 0.44 0.39 0.34 0.32 0.31 0.32 0.38 0.39 0.44 0.46 0.47 0.46 0.47 0.49 0.50 0.51 0.51 0.49 0.47 0.44 0.41 0.36 0.32 0.31 0.30 0.29 0.28 0.26 0.23 0.23 0.27 0.28 0.32
0.52 0.52 0.51 0.50 0.54 0.44 0.36 0.34 0.37 0.28 0.22 0.23 0.24 0.24 0.26 0.28 0.32 0.33 0.34 0.38 0.39 0.37 0.33 0.30 0.27 0.33 0.40 0.44 0.47 0.47 0.49 0.50 0.47 0.42 0.42 0.44 0.44 0.41 0.37 0.35 0.31 0.28 0.27 0.27 0.25 0.25 0.23 0.21 0.20 0.18 0.17 0.18 0.20 0.22
0.48 0.52 0.50 0.49 0.45 0.45 0.39 0.31 0.28 0.27 0.25 0.23 0.24 0.24 0.23 0.27 0.27 0.27 0.28 0.34 0.33 0.32 0.30 0.33 0.34 0.29 0.33 0.45 0.49 0.49 0.47 0.45 0.42 0.42 0.41 0.37 0.37 0.34 0.30 0.25 0.22 0.20 0.18 0.17 0.16 0.15 0.15 0.15 0.15 0.16 0.16 0.15 0.17 0.19
0.44 0.48 0.44 0.47 0.41 0.38 0.34 0.35 0.29 0.27 0.25 0.24 0.23 0.22 0.20 0.21 0.22 0.25 0.29 0.28 0.28 0.31 0.34 0.35 0.37 0.38 0.30 0.26 0.31 0.37 0.39 0.40 0.39 0.37 0.35 0.32 0.27 0.22 0.19 0.17 0.17 0.15 0.15 0.14 0.13 0.12 0.12 0.14 0.15 0.16 0.17 0.18 0.19 0.18
0.47 0.45 0.41 0.39 0.32 0.31 0.27 0.33 0.25 0.25 0.21 0.21 0.22 0.17 0.19 0.21 0.23 0.26 0.23 0.26 0.28 0.33 0.35 0.36 0.38 0.40 0.37 0.32 0.25 0.23 0.27 0.29 0.25 0.25 0.22 0.19 0.16 0.16 0.15 0.16 0.16 0.15 0.14 0.14 0.14 0.14 0.14 0.16 0.16 0.16 0.18 0.18 0.17 0.17
0.49 0.38 0.30 0.28 0.28 0.23 0.27 0.22 0.24 0.22 0.22 0.20 0.19 0.18 0.19 0.19 0.23 0.20 0.19 0.23 0.28 0.32 0.29 0.30 0.35 0.36 0.37 0.35 0.26 0.22 0.22 0.23 0.23 0.23 0.21 0.19 0.17 0.16 0.16 0.16 0.17 0.17 0.16 0.16 0.14 0.14 0.16 0.16 0.17 0.18 0.18 0.17 0.17 0.17
0.29 0.27 0.27 0.22 0.25 0.21 0.19 0.18 0.19 0.20 0.19 0.20 0.16 0.16 0.19 0.22 0.19 0.18 0.19 0.24 0.27 0.25 0.26 0.28 0.29 0.33 0.34 0.33 0.33 0.31 0.31 0.29 0.27 0.26 0.24 0.22 0.20 0.19 0.18 0.18 0.18 0.18 0.18 0.16 0.14 0.15 0.17 0.18 0.18 0.18 0.18 0.18 0.17 0.17
0.20 0.24 0.22 0.21 0.21 0.19 0.19 0.17 0.20 0.20 0.21 0.20 0.18 0.20 0.21 0.19 0.17 0.17 0.21 0.23 0.24 0.25 0.25 0.27 0.28 0.29 0.30 0.33 0.31 0.30 0.29 0.32 0.31 0.26 0.23 0.22 0.21 0.19 0.18 0.17 0.16 0.17 0.20 0.18 0.17 0.18 0.19 0.19 0.19 0.19 0.19 0.19 0.18 0.18
0.19 0.19 0.25 0.29 0.26 0.24 0.22 0.23 0.23 0.21 0.20 0.20 0.20 0.20 0.19 0.15 0.15 0.20 0.24 0.25 0.27 0.29 0.26 0.27 0.28 0.28 0.28 0.29 0.31 0.33 0.32 0.32 0.30 0.27 0.27 0.25 0.24 0.24 0.22 0.20 0.19 0.20 0.20 0.19 0.20 0.20 0.19 0.19 0.19 0.19 0.18 0.18 0.18 0.18
0.22 0.21 0.17 0.22 0.24 0.25 0.22 0.22 0.21 0.21 0.21 0.23 0.22 0.18 0.17 0.16 0.18 0.22 0.22 0.26 0.29 0.31 0.33 0.32 0.30 0.32 0.32 0.32 0.31 0.31 0.32 0.31 0.29 0.28 0.28 0.27 0.27 0.26 0.25 0.23 0.21 0.21 0.21 0.22 0.22 0.22 0.21 0.19 0.18 0.18 0.17 0.17 0.17 0.18
0.21 0.23 0.22 0.19 0.21 0.22 0.22 0.21 0.20 0.21 0.22 0.21 0.17 0.15 0.15 0.18 0.21 0.22 0.24 0.26 0.29 0.30 0.30 0.32 0.31 0.29 0.29 0.30 0.31 0.30 0.30 0.28 0.25 0.22 0.21 0.20 0.20 0.21 0.21 0.20 0.20 0.22 0.22 0.21 0.21 0.21 0.20 0.20 0.19 0.19 0.19 0.19 0.19 0.19
0.19 0.22 0.19 0.18 0.16 0.14 0.15 0.18 0.17 0.19 0.20 0.21 0.20 0.19 0.17 0.16 0.19 0.21 0.21 0.23 0.26 0.27 0.29 0.30 0.32 0.33 0.32 0.31 0.30 0.30 0.30 0.28 0.26 0.22 0.19 0.19 0.20 0.20 0.19 0.20 0.21 0.21 0.21 0.20 0.19 0.19 0.20 0.20 0.20 0.20 0.19 0.19 0.19 0.19
0.21 0.20 0.17 0.16 0.13 0.15 0.16 0.17 0.18 0.18 0.18 0.17 0.18 0.16 0.14 0.14 0.13 0.14 0.15 0.20 0.25 0.27 0.28 0.28 0.30 0.31 0.31 0.31 0.31 0.29 0.27 0.27 0.25 0.24 0.23 0.23 0.21 0.20 0.20 0.21 0.21 0.21 0.21 0.21 0.20 0.19 0.19 0.20 0.20 0.19 0.19 0.20 0.20 0.21
0.17 0.16 0.15 0.13 0.12 0.15 0.16 0.16 0.16 0.16 0.16 0.16 0.16 0.16 0.15 0.13 0.11 0.13 0.15 0.20 0.24 0.25 0.27 0.29 0.29 0.30 0.31 0.32 0.31 0.30 0.28 0.24 0.22 0.22 0.21 0.20 0.20 0.21 0.21 0.21 0.22 0.22 0.22 0.22 0.22 0.21 0.21 0.21 0.22 0.23 0.24 0.24 0.24 0.24
0.18 0.17 0.16 0.16 0.15 0.13 0.14 0.15 0.15 0.14 0.14 0.14 0.14 0.15 0.14 0.13 0.11 0.13 0.19 0.24 0.27 0.27 0.28 0.30 0.31 0.31 0.31 0.29 0.27 0.22 0.21 0.20 0.20 0.21 0.22 0.22 0.22 0.22 0.22 0.23 0.23 0.23 0.23 0.22 0.23 0.24 0.25 0.26 0.25 0.24 0.24 0.23 0.23 0.23
Wind_Speed
26 27 27 26 26 27 27 28 26 24 22 19 17 16 16 15 15 15 15 15 14 14 17 17 16 16 15 15 14 13 13 14 13 14 12 11 10 11 9 10 10 12 12 12 13 11 12 10 9 11 9 9 10 9
27 27 26 26 26 25 26 26 25 23 21 18 17 15 15 15 15 17 18 17 17 17 18 21 24 24 23 22 19 18 16 15 17 14 14 13 13 11 12 10 11 11 11 11 13 12 11 10 10 11 11 12 11 10
26 26 26 26 26 25 25 25 25 22 20 18 17 16 16 16 16 17 18 19 20 20 23 18 17 20 23 27 30 24 22 20 18 18 16 15 14 14 13 14 12 13 12 11 11 13 15 15 13 11 11 11 12 12
26 24 25 25 24 24 24 24 23 21 19 18 17 17 15 17 18 17 17 18 18 19 19 17 18 21 24 25 30 35 31 25 21 20 20 18 15 14 15 14 13 13 11 13 14 15 14 14 15 14 14 15 15 14
24 23 23 23 23 22 22 22 22 20 20 19 18 16 16 17 17 17 16 17 17 15 17 20 24 22 24 27 28 32 36 34 29 22 21 21 18 14 13 14 14 15 14 12 13 12 12 14 15 17 18 19 18 17
23 23 22 22 22 21 21 20 19 19 19 16 17 15 15 16 12 10 8 7 6 9 12 14 17 19 22 26 32 35 37 35 32 27 23 21 19 17 13 13 14 14 14 12 12 12 14 15 16 15 15 18 19 18
24 22 21 20 21 21 18 17 17 17 17 16 15 14 13 9 6 4 5 5 6 8 10 12 16 20 23 19 18 20 29 33 31 27 22 21 20 18 15 14 13 14 13 12 12 13 15 14 14 16 16 16 17 18
25 23 20 19 19 17 16 15 14 16 15 15 15 12 9 6 5 4 4 4 5 7 8 10 14 16 14 9 1 9 19 28 25 23 18 18 17 15 14 14 13 13 14 14 12 12 14 16 17 18 17 16 17 17
25 23 19 18 18 14 14 13 13 15 14 15 14 10 7 5 4 4 6 6 5 5 7 8 11 11 10 10 11 14 18 19 16 17 16 17 15 15 12 12 12 12 11 13 14 15 16 16 17 17 17 18 18 18
23 22 19 18 15 14 14 13 13 14 15 15 11 7 5 5 7 7 3 2 2 2 4 7 7 5 5 5 5 8 7 14 10 12 13 13 12 13 11 10 11 12 12 13 14 14 15 14 15 16 17 18 19 19
22 21 20 18 15 14 14 13 13 13 13 11 9 7 8 9 7 4 3 2 1 2 2 4 5 3 2 2 4 4 6 8 7 10 9 9 10 11 13 13 12 12 13 13 14 14 14 16 17 17 17 17 17 18
21 19 20 18 16 14 14 14 14 14 13 13 12 11 8 6 4 4 3 3 3 2 2 4 4 1 1 1 2 2 4 5 6 8 8 7 7 9 9 10 10 11 12 13 12 12 14 16 17 16 15 13 14 15
19 19 19 18 17 15 14 14 14 14 15 13 10 8 6 4 4 5 4 4 4 4 4 5 4 3 2 3 3 3 3 4 5 7 8 8 8 9 9 9 8 8 8 8 9 11 12 13 11 9 10 10 11 11
19 18 19 18 17 15 14 14 14 14 12 11 10 10 7 6 6 6 8 8 8 8 9 9 7 5 5 5 4 3 4 4 4 6 8 7 8 7 7 7 6 5 4 4 5 6 7 9 6 6 6 8 9 10
19 19 19 18 16 15 14 13 13 13 12 10 9 9 9 10 10 11 11 11 11 11 11 11 10 10 8 7 7 6 5 5 5 4 4 5 6 6 6 6 5 4 3 3 3 4 4 5 3 1 2 4 7 9
20 19 19 17 15 15 14 13 14 13 11 9 9 11 13 13 13 13 14 13 13 13 12 12 11 11 11 10 9 9 7 8 6 5 4 4 6 6 5 4 5 4 4 4 4 4 4 5 5 5 5 6 7 8
20 20 19 17 15 14 14 15 14 12 11 11 13 14 14 16 16 16 15 16 15 14 13 14 14 13 12 11 11 11 11 9 9 8 7 6 7 8 7 6 5 4 5 5 5 5 6 7 7 7 8 8 8 8
22 21 19 17 16 16 16 15 14 13 13 13 13 13 13 15 15 16 16 17 16 16 15 15 16 16 16 14 12 11 11 11 10 10 10 10 10 10 9 9 9 8 9 9 9 9 10 10 11 11 12 12 11 11
22 21 20 18 18 17 17 16 15 15 15 14 14 14 14 15 16 16 16 16 17 18 18 17 18 18 20 18 17 15 14 14 12 11 10 11 12 13 13 13 13 13 13 14 14 15 15 15 15 15 15 15 14 14
23 22 21 20 20 19 19 18 16 17 17 15 15 15 14 15 15 15 15 15 15 17 18 19 20 19 16 18 19 19 18 17 15 15 15 15 15 15 16 16 16 16 17 17 18 18 18 18 18 18 18 18 18 18
24 23 22 22 22 21 21 19 18 17 17 17 16 15 16 16 16 15 16 15 16 17 18 21 22 22 21 22 22 22 20 20 20 20 19 18 18 18 18 18 18 18 18 19 20 20 20 20 20 20 20 19 19 19
27 26 25 25 24 22 22 22 21 19 18 18 17 17 17 16 16 15 15 14 15 16 17 18 20 23 21 22 24 23 21 21 21 19 18 17 18 18 18 18 17 17 17 17 17 17 16 16 16 17 17 17 17 18
26 26 25 24 22 22 22 22 21 21 19 18 17 16 16 16 15 16 14 15 15 16 16 17 18 19 21 19 18 20 21 20 20 19 18 17 16 16 15 16 16 16 16 16 16 16 17 17 17 17 17 18 18 18
25 25 24 23 23 22 21 21 21 21 20 19 17 17 16 15 15 14 15 14 14 13 13 15 17 18 19 19 19 19 19 19 18 18 18 17 17 18 18 18 18 19 19 19 19 19 19 20 20 20 20 20 20 20
21 22 22 23 22 21 22 22 22 21 20 19 17 17 16 14 13 13 12 11 11 12 13 12 13 15 16 17 18 19 19 19 19 19 20 19 19 18 19 20 20 21 21 21 21 21 21 21 22 22 23 23 23 24
22 22 22 21 21 21 20 18 18 18 16 17 17 15 13 12 11 12 9 10 10 10 10 10 10 11 13 15 16 16 17 18 18 18 19 20 20 20 21 21 22 23 23 23 23 23 23 24 25 25 26 27 28 28
20 20 19 19 18 17 17 16 16 15 15 16 15 13 12 11 12 11 10 10 11 10 9 8 7 7 8 10 12 14 14 16 17 18 18 20 21 22 23 23 24 24 24 24 24 25 26 27 28 29 29 30 31 31
20 19 20 19 18 19 18 17 16 17 16 16 15 16 14 13 12 12 13 13 12 12 12 12 12 12 12 13 12 13 14 15 16 18 20 21 23 24 24 25 26 26 26 27 27 28 29 30 31 32 33 34 34 35
17 16 15 16 17 18 19 18 18 19 18 19 19 19 19 18 18 17 17 17 16 16 15 14 14 15 16 16 16 17 17 18 18 20 21 22 23 24 24 25 25 26 27 29 30 31 33 34 35 36 37 38 38 38
15 15 15 16 18 20 20 21 20 21 21 22 22 22 22 21 21 22 21 21 21 21 20 19 19 19 19 20 20 21 22 22 22 22 22 23 23 23 23 25 27 28 29 31 33 35 36 37 38 39 40 40 39 39
19 19 20 21 22 22 22 23 24 24 24 24 25 25 24 23 23 24 24 23 23 22 21 22 22 21 21 22 22 21 22 22 23 24 24 24 24 25 26 27 29 30 32 35 36 37 38 39 39 39 38 37 35 34
25 25 24 24 24 23 22 21 22 23 23 23 24 24 23 22 22 21 19 19 19 20 21 20 20 20 20 20 19 19 19 20 20 20 21 23 24 26 28 30 32 34 36 37 38 38 38 37 34 32 31 31 30 30
24 24 23 23 23 22 22 21 21 22 22 23 23 24 23 22 21 19 19 19 19 19 18 18 18 18 17 16 16 16 16 17 18 20 22 25 27 30 32 33 34 35 36 35 33 31 30 29 28 27 27 26 25 25
Wind_Direction
306 309 311 310 312 316 319 321 320 320 317 311 300 288 286 273 271 262 261 263 262 262 266 263 261 258 260 254 249 250 243 239 235 234 234 233 230 230 226 228 224 222 224 231 232 239 250 226 222 222 223 231 244 251
305 306 308 308 309 311 316 319 321 320 318 314 302 290 293 278 276 266 262 260 264 264 264 269 266 261 257 254 254 248 246 241 233 232 236 237 235 232 230 237 230 234 229 230 226 235 237 226 225 238 244 244 243 249
307 303 304 304 305 305 311 315 319 316 316 312 309 288 283 286 280 274 266 264 265 268 277 269 268 265 263 255 246 245 243 242 237 235 233 234 238 231 232 240 236 239 234 240 237 240 237 239 247 247 243 240 242 251
312 305 304 304 302 303 306 311 315 313 313 310 306 298 285 287 283 277 269 265 270 275 274 277 275 271 271 264 249 242 240 237 240 237 232 232 233 235 236 240 237 237 230 237 246 247 246 249 241 244 250 250 252 256
317 308 303 304 302 302 304 308 313 313 311 307 306 298 292 294 290 280 269 268 268 270 281 287 289 282 277 264 255 245 237 234 230 233 229 230 230 231 240 238 243 236 236 237 241 240 243 247 253 258 257 256 255 254
323 314 308 305 305 302 300 306 311 314 316 312 311 302 299 301 290 275 265 268 269 281 301 305 305 305 295 278 261 253 236 226 222 223 226 228 227 226 233 239 242 239 238 241 241 245 251 258 264 257 260 257 251 251
327 321 313 309 306 302 297 303 309 314 318 315 314 309 307 299 291 262 264 274 290 309 318 320 325 323 318 298 266 250 218 212 209 217 223 222 222 221 233 241 240 234 235 245 252 256 261 256 259 267 264 259 251 248
332 325 317 310 310 303 297 300 305 316 318 321 319 309 305 281 275 276 289 294 303 328 330 337 340 345 350 349 308 187 186 189 199 206 213 210 214 223 238 243 238 241 247 246 246 258 265 270 268 265 262 257 250 248
335 333 323 316 311 303 299 298 303 314 320 323 319 306 293 278 267 272 303 302 295 312 337 343 354 0 24 55 84 121 153 173 186 199 212 202 211 222 232 234 234 241 242 245 258 267 272 273 272 266 262 257 251 250
336 336 331 321 311 303 300 297 305 310 318 324 325 307 292 275 289 298 308 296 308 332 340 347 356 15 35 83 106 137 148 170 180 199 192 212 224 225 230 234 238 246 251 256 264 271 275 275 273 268 263 260 252 248
334 336 336 330 315 308 298 294 301 308 316 319 320 308 294 297 287 267 264 266 262 303 316 340 356 6 77 114 139 118 155 163 177 178 196 210 229 227 233 239 248 252 256 260 263 268 273 274 274 271 268 260 248 245
333 332 334 333 322 312 305 294 294 300 305 304 302 300 298 294 263 246 250 261 245 294 296 326 336 308 234 152 149 147 166 192 198 197 208 227 238 228 234 243 250 254 258 263 262 273 285 287 281 267 260 250 244 246
324 327 326 328 323 314 308 305 301 294 300 297 293 292 292 282 267 247 254 261 268 291 284 299 311 262 251 229 211 206 191 201 201 209 232 245 237 235 241 241 244 257 259 259 268 282 295 304 283 260 250 245 243 243
311 315 320 318 318 312 308 308 305 306 301 291 287 285 267 269 264 263 257 266 272 275 280 279 263 249 250 246 227 221 236 235 237 247 249 240 229 226 221 222 229 241 248 263 279 289 315 331 283 261 247 245 252 254
300 305 309 312 311 307 302 306 308 309 301 289 280 269 264 267 271 272 268 269 271 275 276 267 254 241 243 235 230 229 230 235 230 239 241 226 211 206 208 214 216 216 235 258 291 317 331 351 6 340 279 263 267 270
294 298 300 301 302 303 294 297 303 305 301 290 274 277 276 278 276 273 271 268 268 274 269 253 247 242 238 232 234 230 237 236 239 244 251 217 198 193 192 196 204 217 237 263 284 303 320 330 334 326 314 300 290 284
288 292 291 287 291 296 297 293 297 298 290 284 284 283 277 280 277 275 268 266 269 270 260 252 242 237 239 236 239 236 236 240 246 248 238 221 212 213 218 225 234 246 261 275 282 294 303 310 313 315 315 313 308 305
284 285 281 275 280 287 290 293 288 286 287 289 286 286 282 280 281 278 273 268 265 259 256 249 246 240 236 235 240 241 242 244 246 244 238 235 232 232 237 243 251 262 269 275 281 288 296 301 303 303 302 300 299 299
279 276 272 271 273 282 282 285 278 277 280 289 290 287 288 288 284 281 277 272 262 257 254 246 244 242 241 240 241 243 240 239 242 245 242 240 241 244 249 255 260 266 271 274 279 282 286 290 293 296 296 294 292 290
271 271 265 267 272 275 271 275 280 274 276 285 288 285 289 291 292 288 281 273 268 257 248 243 243 245 244 240 239 242 244 239 241 246 250 251 252 253 256 259 263 268 271 274 278 281 283 286 286 290 290 290 289 287
266 264 263 266 270 267 264 264 272 276 276 274 286 282 287 293 293 289 286 276 268 262 256 248 246 246 245 242 242 244 246 244 249 252 255 255 254 256 259 262 265 269 272 276 278 279 281 281 283 285 287 287 287 288
263 260 263 263 264 264 259 259 265 272 274 270 280 284 284 289 289 288 290 283 275 269 258 253 248 242 245 244 243 244 247 247 248 249 251 253 256 257 258 259 263 268 272 276 278 280 282 283 284 286 288 289 290 290
257 257 259 259 257 256 257 257 263 267 269 266 274 283 279 285 286 291 285 283 281 276 268 259 252 246 242 246 246 244 243 241 243 246 249 251 252 253 255 257 261 265 270 275 276 278 279 282 284 286 287 289 291 291
251 250 253 253 247 253 256 259 262 263 266 258 264 272 274 282 288 288 284 285 286 283 277 264 252 247 244 241 241 240 239 240 242 246 248 248 253 255 257 260 263 266 269 275 278 277 277 279 281 283 285 287 287 288
246 245 248 248 249 250 254 259 261 258 255 249 256 264 268 279 285 285 281 286 292 290 283 275 257 247 244 240 241 242 241 242 243 246 248 250 255 260 263 265 266 269 272 275 277 277 277 278 280 280 282 285 287 287
242 244 243 248 248 247 252 251 249 244 247 244 245 253 262 271 277 268 274 287 298 297 290 278 263 249 244 240 240 241 242 240 244 249 253 252 256 261 265 267 270 273 273 275 276 276 277 279 281 281 282 283 285 286
241 245 246 246 245 246 245 247 245 243 241 238 239 242 255 261 263 259 275 285 293 293 289 283 262 249 247 246 243 245 246 243 248 255 259 261 262 264 266 269 271 274 275 276 276 277 279 281 281 282 283 283 283 283
246 244 240 243 243 240 238 240 238 241 244 238 236 240 244 246 262 267 273 281 286 290 282 274 266 261 259 258 258 255 255 256 259 264 268 271 270 270 270 272 273 274 276 278 279 280 281 281 282 283 283 284 284 283
242 238 237 237 237 238 238 239 243 244 244 240 241 247 252 259 269 272 274 274 277 279 279 277 272 264 263 264 263 263 263 263 265 269 273 275 276 274 273 274 276 277 279 281 282 282 283 283 284 284 284 284 283 282
241 236 241 243 242 245 247 245 250 251 250 248 249 254 257 263 269 271 271 271 271 272 272 270 270 267 267 265 266 267 266 266 267 270 273 276 277 277 277 278 280 282 284 285 286 286 286 286 287 286 286 285 283 281
248 249 251 251 254 256 256 256 255 253 253 253 252 251 257 266 271 275 269 267 269 270 270 269 267 267 266 266 267 268 268 268 269 271 275 276 277 280 282 284 285 287 288 289 289 288 288 288 288 287 286 284 282 279
251 248 251 253 255 257 257 255 255 253 253 252 251 251 256 261 266 279 272 265 267 267 267 268 265 268 268 267 267 267 270 272 274 275 276 279 282 284 287 289 290 290 291 292 291 290 289 288 287 285 284 283 282 278
250 250 251 250 252 252 252 254 254 255 251 249 249 247 247 253 259 271 274 271 271 270 268 266 265 266 267 266 265 266 269 274 278 282 284 286 288 291 292 293 293 293 293 293 292 291 289 287 285 284 285 284 282 278